Weather History for Las Vegas, NM

Change the Weather History Date:

Wednesday, January 16, 2013

  Actual Average Record
Temperature  
Mean Temperature 28 °F -  
Max Temperature 41 °F 45 °F 69 °F (2000)
Min Temperature 16 °F 19 °F 1 °F (2007)
Degree Days  
Heating Degree Days 36    
Moisture  
Dew Point 14 °F    
Average Humidity 56    
Maximum Humidity 75    
Minimum Humidity 41    
Precipitation  
Precipitation 0.00 in - - ()
Sea Level Pressure  
Sea Level Pressure 30.31 in    
Wind  
Wind Speed 5 mph (ENE)    
Max Wind Speed 9 mph    
Max Gust Speed -    
Visibility 10 miles    
Events      
Averages and records for this station are not official NWS values.
T = Trace of Precipitation, MM = Missing Value Source: NWS Daily Summary

Daily Weather History Graph

Daily Weather History Graph

Search for Another Location

Airport:

Trip Planner

Search our weather history database for the weather conditions in past years. The results will help you decide how hot, cold, wet, or windy it might be!

Date:

Astronomy

Jan. 16, 2013 Rise Set
Actual Time 7:09 AM MST 5:12 PM MST
Civil Twilight 6:41 AM MST 5:39 PM MST
Nautical Twilight 6:10 AM MST 6:11 PM MST
Astronomical Twilight 5:39 AM MST 6:41 PM MST
Moon 9:59 AM MST (1/16) 10:52 PM MST (1/16)
Length of Visible Light 10h 58m
Length of Day
10h 02m
Waxing Crescent, 29% of the Moon is Illuminated
Jan 16
Waxing Crescent
Jan 18
First Quarter
Jan 26
Full
Feb 3
Last Quarter
Feb 10
New

Hourly Weather History & Observations

Time (MST) Temp. Windchill Dew Point Humidity Pressure Visibility Wind Dir Wind Speed Gust Speed Precip Events Conditions
1:53 AM 16.0 °F 5.3 °F 3.0 °F 57% 30.26 in 10.0 mi NNW 8.1 mph - N/A   Clear
2:53 AM 19.0 °F 13.9 °F 3.9 °F 52% 30.25 in 10.0 mi North 3.5 mph - N/A   Clear
3:53 AM 17.1 °F 8.7 °F 3.9 °F 56% 30.27 in 10.0 mi North 5.8 mph - N/A   Clear
5:53 AM 18.0 °F 11.1 °F 6.1 °F 60% 30.26 in 10.0 mi ENE 4.6 mph - N/A   Clear
6:53 AM 17.1 °F 6.6 °F 6.1 °F 62% 30.32 in 10.0 mi North 8.1 mph - N/A   Clear
7:53 AM 18.0 °F - 7.0 °F 62% 30.31 in 10.0 mi Calm Calm - N/A   Clear
8:53 AM 21.9 °F 17.2 °F 12.0 °F 66% 30.34 in 10.0 mi WNW 3.5 mph - N/A   Clear
9:53 AM 30.9 °F - 14.0 °F 50% 30.33 in 10.0 mi Calm Calm - N/A   Clear
10:53 AM 33.1 °F 30.0 °F 14.0 °F 46% 30.31 in 10.0 mi East 3.5 mph - N/A   Clear
11:53 AM 36.0 °F - 14.0 °F 41% 30.29 in 10.0 mi Calm Calm - N/A   Clear
12:53 PM 37.9 °F 32.7 °F 19.0 °F 47% 30.26 in 10.0 mi SE 6.9 mph - N/A   Clear
1:53 PM 39.9 °F 35.1 °F 19.0 °F 43% 30.23 in 10.0 mi SSE 6.9 mph - N/A   Clear
2:53 PM 41.0 °F 35.2 °F 19.9 °F 43% 30.21 in 10.0 mi SSE 9.2 mph - N/A   Clear
3:53 PM 39.9 °F 35.1 °F 18.0 °F 41% 30.25 in 10.0 mi SE 6.9 mph - N/A   Clear
4:53 PM 35.1 °F 28.6 °F 23.0 °F 61% 30.31 in 10.0 mi SE 8.1 mph - N/A   Clear
5:53 PM 30.0 °F 23.2 °F 21.0 °F 69% 30.36 in 10.0 mi SE 6.9 mph - N/A   Clear
6:53 PM 34.0 °F 28.8 °F 18.0 °F 52% 30.36 in 10.0 mi South 5.8 mph - N/A   Clear
7:53 PM 32.0 °F 27.5 °F 18.0 °F 56% 30.39 in 10.0 mi West 4.6 mph - N/A   Clear
8:53 PM 30.0 °F 25.2 °F 17.1 °F 59% 30.39 in 10.0 mi WNW 4.6 mph - N/A   Clear
9:53 PM 28.0 °F 24.2 °F 16.0 °F 61% 30.37 in 10.0 mi North 3.5 mph - N/A   Clear
10:53 PM 25.0 °F 19.3 °F 16.0 °F 69% 30.39 in 10.0 mi East 4.6 mph - N/A   Clear
11:53 PM 21.9 °F 17.2 °F 15.1 °F 75% 30.40 in 10.0 mi NE 3.5 mph - N/A   Clear